[[{"header":{"parameterUnit":"m.s-1","parameterCategory":1,"la1":30.2991,"la2":30.254,"lo1":-89.0895,"lo2":-89.0444,"dy":0.0017,"dx":0.0017,"nx":28,"ny":28,"refTime":"2025-04-12T03:00:00:Z","depth":0,"parameterNumber":2,"parameterNumberName":"U-component_of_WINDS"},"data":[0,0,0,0,0,0,0,0,0,0,0,0,0,0,0,0,0,0,0,0,0,0,0,0,0,0,0,0,0,0,0,0,0,0,0,0,0,0,0,0,0,0,0,0,0,0,0,0,0,0,0,0,0,0,0,0,0,0,0.0607,0.0609,0,0.0765,0.0767,0.0769,0.0824,0.0823,0.0823,0.0822,0.0984,0.0989,0.0994,0,0,0,0,0,0,0,0,0,0,0,0,0,0.0352,0.0356,0.0607,0.0609,0.0611,0.0765,0.0767,0.0769,0.0824,0.0823,0.0822,0.0822,0.0982,0.0988,0.0994,0,0,0,0,0,0,0,0,0,0,0,0,0,0.0481,0.0358,0.0606,0.0657,0.0663,0.0764,0.0767,0.077,0.0824,0.0823,0.0822,0.0821,0.098,0.0988,0.0995,0.1058,0,0,0.1017,0.102,0,0,0,0,0,0,0,0,0.0474,0.0491,0.0647,0.0653,0.066,0.0774,0.0736,0.0866,0.0824,0.0763,0.0822,0.0821,0.0915,0.0927,0.0959,0.1066,0.1073,0.1018,0.1022,0.1025,0.1027,0,0,0,0,0,0,0,0.0465,0.0484,0.0669,0.0649,0.0657,0.0671,0.0688,0.0761,0.0842,0.0768,0.0772,0.079,0.0918,0.0952,0.0963,0.1075,0.1018,0.1024,0.1029,0.1031,0.1241,0.1242,0,0,0,0,0,0,0.0448,0.0476,0.0664,0.0674,0.0563,0.0676,0.0696,0.0738,0.0841,0.0856,0.0791,0.0792,0.094,0.0955,0.0969,0.105,0.1025,0.1032,0.1036,0.124,0.1242,0.1243,0,0,0,0,0,0,0.0442,0.0464,0.0658,0.0577,0.0602,0.0682,0.0729,0.0742,0.0776,0.0859,0.0873,0.0811,0.094,0.0959,0.1036,0.1057,0.1035,0.1042,0.1239,0.1241,0.1242,0.1212,0,0,0,0,0,0,0.0434,0.0461,0.0486,0.0577,0.0606,0.0722,0.073,0.0746,0.0788,0.0791,0.0881,0.0895,0.094,0.1024,0.1043,0.1066,0.1048,0.1237,0.1239,0.1242,0.1212,0.1213,0.1214,0,0,0,0,0,0.0425,0.0472,0.0487,0.051,0.0639,0.0723,0.074,0.0791,0.079,0.0815,0.0868,0.0892,0.1051,0.1032,0.1053,0.1079,0.1236,0.1239,0.1241,0.1211,0.1213,0.1214,0,0,0,0,0,0,0.0382,0.0484,0.0503,0.058,0.0642,0.0732,0.0766,0.0791,0.0855,0.0855,0.0916,0.0936,0.1008,0.1051,0.1028,0.1146,0.1145,0.1152,0.1115,0.1117,0.1118,0.1106,0.1054,0,0,0,0,0,0.0381,0.0441,0.0527,0.0587,0.0617,0.0686,0.0724,0.0758,0.0825,0.0852,0.0911,0.0974,0.1039,0.108,0.1144,0.1218,0.1238,0.1246,0.1247,0.1248,0.1253,0.1296,0.13,0.1252,0.1252,0.1251,0,0,0.0381,0.0444,0.0478,0.058,0.0632,0.0692,0.0708,0.0771,0.0816,0.0861,0.0938,0.0983,0.1058,0.1133,0.117,0.1172,0.1271,0.1251,0.1251,0.1257,0.1299,0.1304,0.1308,0.1253,0.1253,0.1253,0,0,0.0411,0.0465,0.0521,0.0573,0.0651,0.0697,0.071,0.0796,0.0827,0.0905,0.094,0.0994,0.1104,0.1156,0.1197,0.1246,0.127,0.1265,0.1271,0.1311,0.1315,0.1319,0.1337,0.1342,0.127,0.127,0.127,0,0.0401,0.0493,0.0546,0.0607,0.0651,0.0695,0.0752,0.0799,0.0895,0.0924,0.0924,0.1063,0.1117,0.1205,0.1217,0.1248,0.1266,0.1256,0.131,0.1315,0.1319,0.1337,0.1343,0.1269,0.1269,0.1269,0.127,0,0.0476,0.0539,0.0575,0.0666,0.0714,0.0772,0.0834,0.0876,0.0906,0.0951,0.1029,0.1095,0.1173,0.1196,0.1226,0.1289,0.1288,0.1298,0.1299,0.1322,0.1339,0.1346,0.1268,0.1268,0.1268,0.1269,0,0,0.0484,0.0604,0.0616,0.0658,0.0748,0.0797,0.0858,0.0934,0.0969,0.1032,0.1085,0.1176,0.1187,0.1233,0.1269,0.1304,0.1339,0.1311,0.1314,0.1315,0.1413,0.1405,0.1412,0.1355,0.1357,0.1358,0.1407,0,0.0526,0.0637,0.0686,0.0774,0.0833,0.0875,0.0928,0.0988,0.1032,0.1088,0.1136,0.12,0.1209,0.1238,0.1275,0.1327,0.136,0.1324,0.1405,0.1407,0.1385,0.1421,0.1412,0.1455,0.1414,0.1415,0.1416,0,0.0591,0.0655,0.0748,0.0831,0.0858,0.0904,0.0978,0.1031,0.11,0.1129,0.1181,0.1215,0.128,0.1275,0.1366,0.134,0.1376,0.1407,0.141,0.142,0.1413,0.1432,0.147,0.1477,0.1427,0.1427,0.1426,0,0.0588,0.0697,0.0768,0.0802,0.09,0.0932,0.0974,0.1042,0.1085,0.1149,0.1177,0.1248,0.1287,0.1341,0.1393,0.1385,0.1479,0.1478,0.1505,0.1504,0.1523,0.1522,0.1568,0.1545,0.1545,0.1545,0.1545,0,0.063,0.0686,0.0768,0.0811,0.0874,0.0931,0.0992,0.1037,0.1098,0.115,0.1191,0.1239,0.1305,0.1362,0.1403,0.1472,0.1489,0.1515,0.1525,0.1512,0.1508,0.1536,0.1535,0.1547,0.1546,0.1546,0.1546,0,0.0638,0.0695,0.0774,0.086,0.0883,0.0926,0.1,0.1043,0.1088,0.1155,0.1173,0.1244,0.1313,0.1371,0.1461,0.1489,0.1561,0.1573,0.1537,0.1543,0.1566,0.1563,0.1633,0.1645,0.1613,0.1613,0.1613,0,0.0661,0.0705,0.0796,0.0834,0.0876,0.0937,0.098,0.1037,0.1081,0.1163,0.1196,0.1268,0.1329,0.1437,0.1496,0.1566,0.158,0.16,0.1591,0.1576,0.1581,0.1578,0.1583,0.16,0.16,0.16,0.16,0,0.0697,0.0723,0.0784,0.0856,0.0906,0.0965,0.1025,0.1054,0.1121,0.1168,0.1239,0.1286,0.1378,0.1449,0.1525,0.1569,0.1596,0.1603,0.1613,0.1599,0.1577,0.159,0.154,0.1601,0.1601,0.1601,0.1601,0.1601,0.0714,0.0755,0.0825,0.0892,0.0943,0.0998,0.1043,0.1093,0.1154,0.1233,0.1263,0.1336,0.1404,0.1508,0.1552,0.1609,0.1613,0.1627,0.1631,0.1634,0.1632,0.1567,0.1623,0.1623,0.1623,0.1623,0.1624,0,0.0752,0.0799,0.086,0.0943,0.0995,0.1016,0.1083,0.1126,0.1189,0.125,0.1309,0.139,0.1459,0.1524,0.1596,0.1629,0.1644,0.1646,0.1645,0.1654,0.1624,0.1609,0.1634,0.1634,0.1634,0.1634,0.1634,0.1634,0.0779,0.0849,0.0883,0.0979,0.1026,0.1097,0.1134,0.1185,0.1234,0.1323,0.138,0.1422,0.1485,0.1561,0.1625,0.1643,0.1667,0.1667,0.1687,0.1658,0.1657,0.1655,0.1641,0.1672,0.1672,0.1713,0.1713,0.1713]},{"header":{"parameterUnit":"m.s-1","parameterCategory":1,"la1":30.2991,"la2":30.254,"lo1":-89.0895,"lo2":-89.0444,"dy":0.0017,"dx":0.0017,"nx":28,"ny":28,"refTime":"2025-04-12T03:00:00:Z","depth":0,"parameterNumber":3,"parameterNumberName":"V-component_of_WINDS"},"data":[0,0,0,0,0,0,0,0,0,0,0,0,0,0,0,0,0,0,0,0,0,0,0,0,0,0,0,0,0,0,0,0,0,0,0,0,0,0,0,0,0,0,0,0,0,0,0,0,0,0,0,0,0,0,0,0,0,0,5.5009,5.5009,0,5.4995,5.4995,5.4995,5.4903,5.4901,5.4899,5.4897,5.4883,5.4885,5.4887,0,0,0,0,0,0,0,0,0,0,0,0,0,5.4956,5.4958,5.5009,5.5009,5.5008,5.4995,5.4995,5.4995,5.4903,5.4901,5.4898,5.4895,5.4883,5.4885,5.4887,0,0,0,0,0,0,0,0,0,0,0,0,0,5.4965,5.4958,5.5009,5.4961,5.4957,5.4995,5.4995,5.4995,5.4904,5.4901,5.4897,5.4894,5.4882,5.4885,5.4887,5.497,0,0,5.4895,5.4896,0,0,0,0,0,0,0,0,5.4964,5.4967,5.4968,5.4965,5.496,5.4947,5.4971,5.4986,5.4905,5.4924,5.4896,5.4893,5.4907,5.4908,5.4912,5.4969,5.4969,5.4895,5.4897,5.4898,5.4899,0,0,0,0,0,0,0,5.4964,5.4967,5.5003,5.4969,5.4963,5.4941,5.4938,5.4974,5.4935,5.4922,5.4916,5.4915,5.4904,5.491,5.4911,5.4969,5.4895,5.4897,5.4899,5.49,5.5092,5.5095,0,0,0,0,0,0,5.497,5.4967,5.5004,5.5003,5.4954,5.4944,5.4942,5.4955,5.4934,5.4928,5.4918,5.4911,5.4907,5.4909,5.4911,5.5005,5.4898,5.49,5.4902,5.5089,5.5093,5.5097,0,0,0,0,0,0,5.4969,5.4974,5.5004,5.4983,5.4985,5.4949,5.4964,5.4956,5.4962,5.4931,5.4923,5.4931,5.4905,5.4907,5.4956,5.5004,5.4901,5.4904,5.5084,5.509,5.5095,5.5196,0,0,0,0,0,0,5.4968,5.4974,5.5005,5.4984,5.4987,5.505,5.4967,5.4958,5.4966,5.4957,5.4941,5.4935,5.4902,5.4952,5.4958,5.5005,5.4906,5.508,5.5087,5.5093,5.5189,5.5204,5.5218,0,0,0,0,0,5.4966,5.5035,5.5007,5.5012,5.5025,5.5053,5.5054,5.5014,5.4971,5.5002,5.4982,5.4936,5.4998,5.4958,5.4964,5.5013,5.5077,5.5085,5.5093,5.5182,5.5201,5.5218,0,0,0,0,0,0,5.5063,5.5031,5.5,5.5064,5.5062,5.5037,5.5075,5.5036,5.5046,5.5037,5.4988,5.4985,5.5041,5.5032,5.4988,5.5091,5.5029,5.5039,5.5095,5.5113,5.5128,5.5128,5.4908,0,0,0,0,0,5.5091,5.5116,5.5088,5.5147,5.5147,5.5112,5.5122,5.5092,5.5087,5.5086,5.507,5.5067,5.5086,5.5099,5.5115,5.5187,5.5182,5.5224,5.5238,5.5251,5.5259,5.5296,5.5314,5.5123,5.5123,5.5123,0,0,5.5151,5.5137,5.5155,5.5166,5.516,5.5187,5.5111,5.5143,5.5163,5.5091,5.5135,5.5124,5.5118,5.5178,5.5204,5.5172,5.5311,5.5261,5.5271,5.5273,5.5306,5.5324,5.534,5.5128,5.5127,5.5127,0,0,5.5272,5.5265,5.5312,5.5308,5.5301,5.5277,5.5289,5.527,5.5259,5.5303,5.5249,5.5272,5.5306,5.5303,5.5307,5.5428,5.5386,5.5435,5.5511,5.5548,5.5563,5.5576,5.5618,5.5634,5.5443,5.5444,5.5444,0,5.5347,5.5385,5.5342,5.5377,5.5383,5.5319,5.5367,5.5365,5.5364,5.5369,5.5334,5.5374,5.5366,5.5424,5.5454,5.5459,5.5471,5.5435,5.5564,5.5577,5.5588,5.5628,5.5644,5.545,5.5449,5.5448,5.5448,0,5.5477,5.5504,5.5544,5.5543,5.5554,5.5595,5.5558,5.5574,5.5543,5.5523,5.5568,5.5556,5.5568,5.558,5.555,5.5635,5.5615,5.5573,5.5509,5.5613,5.5649,5.5664,5.5458,5.5456,5.5454,5.5453,0,0,5.5658,5.5633,5.5648,5.5646,5.5634,5.5654,5.5693,5.5704,5.5718,5.5719,5.575,5.578,5.5741,5.5745,5.5714,5.5747,5.5842,5.57,5.5699,5.5726,5.5933,5.5964,5.5982,5.5815,5.5817,5.582,5.5933,0,5.5774,5.5837,5.5799,5.5869,5.5893,5.5833,5.5867,5.5863,5.5845,5.5864,5.5844,5.5866,5.5813,5.5815,5.5844,5.5824,5.5883,5.5816,5.5842,5.5844,5.5844,5.6001,5.6034,5.6142,5.5947,5.595,5.5951,0,5.5917,5.5924,5.5996,5.5977,5.5986,5.6017,5.6024,5.6042,5.6036,5.6021,5.6026,5.5987,5.6024,5.5963,5.6012,5.5967,5.5976,5.5969,5.5972,5.5972,5.5903,5.6005,5.6175,5.6191,5.5974,5.5972,5.597,0,5.604,5.6068,5.6113,5.6114,5.6095,5.6118,5.6111,5.6101,5.611,5.6117,5.6122,5.6133,5.6139,5.6148,5.6114,5.6072,5.6168,5.6104,5.6156,5.6157,5.6178,5.6177,5.6351,5.6186,5.6186,5.6185,5.6185,0,5.6172,5.6219,5.6168,5.6197,5.6247,5.6203,5.6254,5.624,5.6233,5.6257,5.6207,5.6231,5.6185,5.6205,5.6179,5.6223,5.6227,5.6215,5.6207,5.6219,5.622,5.6223,5.6214,5.619,5.6189,5.6188,5.6187,0,5.6318,5.6287,5.6333,5.631,5.6306,5.6343,5.6324,5.6349,5.6328,5.636,5.6365,5.6333,5.6353,5.632,5.6338,5.632,5.6381,5.6363,5.6383,5.6377,5.6431,5.6426,5.6612,5.6634,5.6456,5.6458,5.646,0,5.6404,5.6438,5.6419,5.6431,5.6427,5.6448,5.6457,5.6416,5.6427,5.6423,5.6449,5.6465,5.6475,5.6511,5.6489,5.6502,5.6483,5.6547,5.6484,5.6495,5.6482,5.648,5.6483,5.656,5.6562,5.6564,5.6565,0,5.6559,5.6542,5.6556,5.6565,5.6576,5.6582,5.6583,5.6597,5.6553,5.6568,5.6588,5.6597,5.6614,5.663,5.6638,5.6631,5.6591,5.6585,5.6598,5.6609,5.6619,5.6613,5.6417,5.6581,5.6579,5.6578,5.6577,5.6577,5.6676,5.6703,5.6694,5.6711,5.6708,5.6711,5.6733,5.6715,5.6731,5.6741,5.6716,5.6742,5.6735,5.6741,5.6738,5.6758,5.673,5.6748,5.6753,5.6758,5.6765,5.6617,5.6759,5.6759,5.6758,5.6758,5.6758,0,5.6828,5.6819,5.6835,5.6839,5.6853,5.6814,5.6813,5.6827,5.6851,5.6848,5.6859,5.6882,5.6898,5.6878,5.689,5.691,5.6892,5.6915,5.6912,5.6911,5.6791,5.6778,5.6929,5.6929,5.6929,5.6929,5.6929,5.6929,5.6908,5.6951,5.6933,5.6974,5.6965,5.6989,5.6993,5.6995,5.6992,5.702,5.7032,5.7019,5.7009,5.702,5.7033,5.7026,5.7033,5.7062,5.7049,5.6937,5.692,5.6904,5.6891,5.7064,5.7064,5.7167,5.7168,5.7169]}]]